Torna al catalogo

CZ-6A DEB

AttivoPO
NORAD 54308·DEBRIS·🇨🇳 China

Lanciato Nov 11, 2022 da Taiyuan Satellite Launch Center

Loading…

Prossimi Passaggi (prossime 24 ore)

TLE

AggiornatoSource: Space-Track

Epoca: Sep 14, 2026, 11:38 UTC

1 54308U 22151BB  26257.48483865  .00089814  00000-0  40819-2 0  9993
2 54308  98.6288 352.9837 0024980 291.4664  68.3903 15.20092355204417

Traccia CZ-6A DEB in tempo reale con AllMySat

Download on the App Store